Satellite: HUBBLE
Catalog number: 20580
Epoch time:      06130.77019390
Element set:     606
Inclination:      028.4681 deg
RA of node:       293.8108 deg
Eccentricity:    0.0003869
Arg of perigee:   151.3757 deg
Mean anomaly:     208.7044 deg
Mean motion:   15.00032456 rev/day
Decay rate:       7.98e-06 rev/day^2
Epoch rev:           67947
Checksum:              305

Satellite: UARS
Catalog number: 21701
Epoch time:      06131.78960890
Element set:     766
Inclination:      056.9752 deg
RA of node:       249.3012 deg
Eccentricity:    0.0109196
Arg of perigee:   137.6817 deg
Mean anomaly:     223.2648 deg
Mean motion:   15.43431318 rev/day
Decay rate:      8.811e-05 rev/day^2
Epoch rev:           80368
Checksum:              313

Satellite: PO-34
Catalog number: 25520
Epoch time:      06131.76303247
Element set:     462
Inclination:      028.4589 deg
RA of node:       274.8178 deg
Eccentricity:    0.0005511
Arg of perigee:   200.2308 deg
Mean anomaly:     159.8067 deg
Mean motion:   15.16704153 rev/day
Decay rate:       9.44e-06 rev/day^2
Epoch rev:           41651
Checksum:              289

Satellite: ISS
Catalog number: 25544
Epoch time:      06131.98513889
Element set:     916
Inclination:      051.6383 deg
RA of node:       013.8465 deg
Eccentricity:    0.0009548
Arg of perigee:   188.0374 deg
Mean anomaly:     009.9984 deg
Mean motion:   15.75205568 rev/day
Decay rate:     1.3336e-04 rev/day^2
Epoch rev:           42745
Checksum:              336

Satellite: OO-38
Catalog number: 26063
Epoch time:      06130.66201886
Element set:    0616
Inclination:      100.1872 deg
RA of node:       054.9479 deg
Eccentricity:    0.0036737
Arg of perigee:   212.5557 deg
Mean anomaly:     147.3354 deg
Mean motion:   14.35764095 rev/day
Decay rate:       -6.0e-08 rev/day^2
Epoch rev:           32929
Checksum:              313

Satellite: NO-45
Catalog number: 26932
Epoch time:      06131.42385385
Element set:     311
Inclination:      067.0558 deg
RA of node:       102.0693 deg
Eccentricity:    0.0008861
Arg of perigee:   269.8294 deg
Mean anomaly:     090.1789 deg
Mean motion:   14.29525491 rev/day
Decay rate:       2.12e-06 rev/day^2
Epoch rev:           24071
Checksum:              305

Satellite: UWE-1
Catalog number: 28892
Epoch time:      06131.17205996
Element set:     446
Inclination:      098.1679 deg
RA of node:       029.9803 deg
Eccentricity:    0.0016435
Arg of perigee:   288.3148 deg
Mean anomaly:     071.6279 deg
Mean motion:   14.59347197 rev/day
Decay rate:       2.49e-06 rev/day^2
Epoch rev:            2857
Checksum:              347

Satellite: CO-58
Catalog number: 28895
Epoch time:      06130.75321588
Element set:     429
Inclination:      098.1710 deg
RA of node:       029.6359 deg
Eccentricity:    0.0016885
Arg of perigee:   290.2324 deg
Mean anomaly:     069.7060 deg
Mean motion:   14.59401320 rev/day
Decay rate:       2.26e-06 rev/day^2
Epoch rev:            2839
Checksum:              318

Satellite: NCUBE2
Catalog number: 28897
Epoch time:      06129.91180687
Element set:    0066
Inclination:      098.1677 deg
RA of node:       028.7989 deg
Eccentricity:    0.0016423
Arg of perigee:   295.9892 deg
Mean anomaly:     063.9633 deg
Mean motion:   14.59554275 rev/day
Decay rate:       2.40e-06 rev/day^2
Epoch rev:           02054
Checksum:              350

/EX



----
Via the keps mailing list at AMSAT.ORG courtesy of AMSAT-NA.
To unsubscribe, send "unsubscribe keps" to Majordomo@amsat.org

--- ViaMAIL!/WC v1.60d
 * Origin: Chowdanet (401-724-4410) telnet://chowdanet.com  (1:323/120)